Starlink 30398

operational
NORAD ID: 57815 Int'l Des: 2023-138 Owner: SPXS Country: US Constellation: starlink
LEOCIRCULAR

Über Starlink 30398

Beschreibung wird geladen...

Live-Position

3D-Globus wird geladen...

Nächste Überflüge

Höhenverlauf

Altitude vs Time

uPlot chart will show altitude changes over time

Zweizeiliger Elementsatz

1 57815U 23138H 25306.44545457 .00002328 00000-0 18735-3 0 9999
2 57815 43.0037 207.6153 0001454 268.3025 91.7651 15.02542299119479
Epoch: 2. Nov. 2025 • Age: 8 hours

Aktueller Status

Höhe 564.0 km
Geschwindigkeit 7.58 km/s
Subsatellitenpunkt -23.38°S, 141.56°W
Startdatum 9. Sept. 2023
Alter 2.1 years
Typ internet

Technische Details

Klassifizierung Payload
Masse 730.00 kg
Trockenmasse 700.00 kg
Gesamtmasse 730.00 kg
Länge 0.30 m
Durchmesser 4.10 m
Spannweite 29.00 m
Form Box + pan
Hersteller SPXS
Bus-Typ Starlink V2M
Phasenstatus In Orbit
Besitzer/Staat SPXS/US

Große Konstellationen

Loading constellations...